FW0225 Weather Reports


Display with metric or nautical units.
time (UTC)temp
F
wind
direction
speed
MPH
gust
MPH
rain 1hr
in
rain 24hr
in
rain mn
in
humidity
%
barometer
mb
20260831231021 70 210 0.0 3.0 0.00 0.00 0.00 84 1015.3
20260831230524 70 210 0.0 3.0 0.00 0.00 0.00 85 1015.3
20260831230018 69 210 0.0 1.0 0.00 0.00 0.00 85 1015.3
20260831225522 69 210 0.0 1.0 0.00 0.00 0.00 85 1015.4
20260831225024 69 210 0.0 2.0 0.00 0.00 0.00 85 1015.2
20260831224527 69 210 0.0 4.0 0.00 0.00 0.00 85 1015.1
20260831224029 69 210 1.0 3.0 0.00 0.00 0.00 85 1015.0
20260831223513 69 210 1.0 3.0 0.00 0.00 0.00 85 1015.0
20260831223028 69 210 0.0 2.0 0.00 0.00 0.00 84 1015.0
20260831222515 69 210 0.0 1.0 0.00 0.00 0.00 84 1014.9
20260831222015 69 210 0.0 2.0 0.00 0.00 0.00 84 1014.8
20260831221520 69 210 0.0 2.0 0.00 0.00 0.00 84 1014.7
20260831221020 69 210 0.0 3.0 0.00 0.00 0.00 84 1014.6
20260831220523 69 210 2.0 3.0 0.00 0.00 0.00 83 1014.7
20260831220014 69 210 0.0 1.0 0.00 0.00 0.00 84 1014.9
20260831215518 69 210 0.0 1.0 0.00 0.00 0.00 85 1014.9
20260831215017 69 210 0.0 4.0 0.00 0.00 0.00 85 1015.1
20260831214521 69 210 1.0 4.0 0.00 0.00 0.00 85 1015.0
20260831214041 68 210 0.0 3.0 0.00 0.00 0.00 85 1014.9
20260831213523 68 210 1.0 3.0 0.00 0.00 0.00 85 1015.0
20260831213055 68 210 0.0 1.0 0.00 0.00 0.00 85 1014.8
20260831212517 68 210 0.0 3.0 0.00 0.00 0.00 85 1014.8
20260831212017 68 210 0.0 1.0 0.00 0.00 0.00 84 1014.7
20260831211543 68 210 0.0 1.0 0.00 0.00 0.00 84 1014.6
20260831211020 68 210 1.0 1.0 0.00 0.00 0.00 84 1014.5
20260831210523 68 210 0.0 1.0 0.00 0.00 0.00 84 1014.5
20260831210037 69 210 0.0 1.0 0.00 0.00 0.00 84 1014.5
20260831205525 69 210 0.0 1.0 0.00 0.00 0.00 84 1014.6
20260831205025 69 210 0.0 1.0 0.00 0.00 0.00 84 1014.4
20260831204528 69 210 0.0 1.0 0.00 0.00 0.00 83 1014.3
20260831204028 69 210 0.0 3.0 0.00 0.00 0.00 83 1014.3
20260831203531 69 210 1.0 3.0 0.00 0.00 0.00 83 1014.3
20260831203024 69 210 0.0 2.0 0.00 0.00 0.00 84 1014.4
20260831202548 69 210 0.0 0.0 0.00 0.00 0.00 83 1014.3
20260831202028 69 210 0.0 0.0 0.00 0.00 0.00 83 1014.1
20260831201533 69 210 0.0 0.0 0.00 0.00 0.00 83 1014.2
20260831201014 69 210 0.0 1.0 0.00 0.00 0.00 82 1014.1
20260831200517 70 210 0.0 1.0 0.00 0.00 0.00 82 1014.1
20260831200050 70 210 0.0 1.0 0.00 0.00 0.00 82 1014.1
20260831195514 70 210 0.0 1.0 0.00 0.00 0.00 83 1014.2
20260831195034 70 210 0.0 1.0 0.00 0.00 0.00 82 1014.3
20260831194522 70 210 0.0 0.0 0.00 0.00 0.00 82 1014.2
20260831194024 70 210 0.0 1.0 0.00 0.00 0.00 81 1014.0
20260831193528 71 210 0.0 1.0 0.00 0.00 0.00 81 1013.9
20260831193040 71 210 0.0 1.0 0.00 0.00 0.00 80 1013.8
20260831192523 71 210 0.0 1.0 0.00 0.00 0.00 80 1013.6
20260831192023 71 210 0.0 0.0 0.00 0.00 0.00 80 1013.5
20260831191527 71 210 0.0 0.0 0.00 0.00 0.00 80 1013.4
20260831191027 72 210 0.0 0.0 0.00 0.00 0.00 79 1013.4
20260831190528 72 210 0.0 0.0 0.00 0.00 0.00 80 1013.4
20260831190020 72 210 0.0 0.0 0.00 0.00 0.00 78 1013.3
20260831185524 72 210 0.0 1.0 0.00 0.00 0.00 81 1013.2
20260831185023 73 210 0.0 1.0 0.00 0.00 0.00 81 1013.1
20260831184526 73 210 0.0 1.0 0.00 0.00 0.00 80 1013.0
20260831184011 73 210 0.0 0.0 0.00 0.00 0.00 81 1012.9
20260831183515 73 210 0.0 0.0 0.00 0.00 0.00 81 1012.9
20260831183049 73 210 0.0 1.0 0.00 0.00 0.00 81 1012.8
20260831182511 74 210 0.0 2.0 0.00 0.00 0.00 81 1012.6
20260831182011 74 210 1.0 2.0 0.00 0.00 0.00 81 1012.5
20260831181534 74 210 1.0 2.0 0.00 0.00 0.00 81 1012.3
20260831181033 74 210 1.0 2.0 0.00 0.00 0.00 80 1012.3
20260831180536 75 210 1.0 2.0 0.00 0.00 0.00 80 1012.2
20260831180029 75 210 1.0 2.0 0.00 0.00 0.00 79 1012.2
20260831175512 76 210 1.0 2.0 0.00 0.00 0.00 79 1012.2
20260831175014 76 210 1.0 2.0 0.00 0.00 0.00 79 1012.2
20260831174540 76 210 0.0 1.0 0.00 0.00 0.00 79 1012.1
20260831174020 76 210 1.0 1.0 0.00 0.00 0.00 79 1012.1
20260831173525 77 210 0.0 2.0 0.00 0.00 0.00 78 1012.1
20260831173039 77 210 0.0 1.0 0.00 0.00 0.00 78 1012.0
20260831172522 77 210 0.0 1.0 0.00 0.00 0.00 77 1012.1
20260831172026 77 210 0.0 1.0 0.00 0.00 0.00 78 1012.2
20260831171529 77 210 0.0 1.0 0.00 0.00 0.00 78 1012.2
20260831171029 77 210 0.0 1.0 0.00 0.00 0.00 77 1012.2
20260831170517 78 210 0.0 2.0 0.00 0.00 0.00 77 1012.2
20260831170030 78 210 0.0 3.0 0.00 0.00 0.00 76 1012.2
20260831165515 78 210 1.0 4.0 0.00 0.00 0.00 76 1012.2
20260831165016 78 210 3.0 4.0 0.00 0.00 0.00 74 1012.2
20260831164519 78 210 1.0 4.0 0.00 0.00 0.00 75 1012.2
20260831164019 78 210 2.0 3.0 0.00 0.00 0.00 75 1012.2
20260831163541 78 209 1.0 3.0 0.00 0.00 0.00 75 1012.1
20260831163012 79 209 1.0 3.0 0.00 0.00 0.00 74 1012.2
20260831162535 79 209 2.0 3.0 0.00 0.00 0.00 74 1012.1
20260831162034 79 209 1.0 2.0 0.00 0.00 0.00 74 1012.1
20260831161515 80 209 1.0 3.0 0.00 0.00 0.00 73 1012.1
20260831161014 80 209 2.0 3.0 0.00 0.00 0.00 72 1012.2
20260831160518 81 209 1.0 3.0 0.00 0.00 0.00 71 1012.1
20260831160051 81 209 2.0 3.0 0.00 0.00 0.00 71 1012.1
20260831155512 82 209 1.0 3.0 0.00 0.00 0.00 70 1012.1
20260831155015 83 209 2.0 2.0 0.00 0.00 0.00 69 1012.2
20260831154519 84 209 1.0 3.0 0.00 0.00 0.00 68 1012.2
20260831154040 84 209 1.0 3.0 0.00 0.00 0.00 65 1012.2
20260831153523 85 209 2.0 4.0 0.00 0.00 0.00 65 1012.2
20260831153020 86 209 2.0 3.0 0.00 0.00 0.00 60 1012.2
20260831152523 87 209 1.0 3.0 0.00 0.00 0.00 61 1012.2
20260831152024 88 209 1.0 3.0 0.00 0.00 0.00 59 1012.3
20260831151529 88 207 1.0 4.0 0.00 0.00 0.00 60 1012.4
20260831151030 88 205 2.0 3.0 0.00 0.00 0.00 58 1012.4
20260831150533 89 203 2.0 3.0 0.00 0.00 0.00 54 1012.4
20260831150026 89 203 2.0 3.0 0.00 0.00 0.00 56 1012.5
20260831145530 89 202 2.0 5.0 0.00 0.00 0.00 58 1012.4
20260831145011 89 200 2.0 6.0 0.00 0.00 0.00 53 1012.5
20260831144515 90 193 2.0 6.0 0.00 0.00 0.00 54 1012.5
20260831144016 90 217 1.0 5.0 0.00 0.00 0.00 57 1012.5
20260831143519 90 223 3.0 6.0 0.00 0.00 0.00 54 1012.5
20260831143050 90 223 2.0 8.0 0.00 0.00 0.00 53 1012.4
20260831142514 90 200 2.0 8.0 0.00 0.00 0.00 54 1012.4
20260831142015 90 200 3.0 6.0 0.00 0.00 0.00 54 1012.4
20260831141523 91 227 2.0 6.0 0.00 0.00 0.00 52 1012.3
20260831141023 91 228 2.0 6.0 0.00 0.00 0.00 50 1012.4
20260831140526 91 217 4.0 6.0 0.00 0.00 0.00 49 1012.4
20260831140021 91 191 3.0 6.0 0.00 0.00 0.00 48 1012.4
20260831135524 91 230 3.0 7.0 0.00 0.00 0.00 51 1012.4
20260831135025 92 217 2.0 7.0 0.00 0.00 0.00 49 1012.4
20260831134528 92 210 1.0 6.0 0.00 0.00 0.00 47 1012.4
20260831134049 91 205 1.0 6.0 0.00 0.00 0.00 52 1012.4
20260831133531 91 217 3.0 7.0 0.00 0.00 0.00 47 1012.4
20260831133022 91 196 4.0 6.0 0.00 0.00 0.00 50 1012.5
20260831132527 91 177 2.0 5.0 0.00 0.00 0.00 47 1012.5
20260831132027 91 198 2.0 8.0 0.00 0.00 0.00 49 1012.6
20260831131531 91 207 3.0 8.0 0.00 0.00 0.00 49 1012.6
20260831131050 91 192 2.0 4.0 0.00 0.00 0.00 52 1012.6
20260831130532 91 201 2.0 7.0 0.00 0.00 0.00 51 1012.7
20260831130023 91 211 3.0 7.0 0.00 0.00 0.00 52 1012.7
20260831125526 91 198 3.0 7.0 0.00 0.00 0.00 50 1012.7
20260831125047 91 199 2.0 7.0 0.00 0.00 0.00 49 1012.7
20260831124514 91 215 4.0 7.0 0.00 0.00 0.00 50 1012.7
20260831124017 90 209 2.0 7.0 0.00 0.00 0.00 51 1012.8
20260831123520 91 232 4.0 7.0 0.00 0.00 0.00 50 1012.8
20260831123011 91 202 3.0 8.0 0.00 0.00 0.00 49 1012.8
20260831122513 90 218 4.0 7.0 0.00 0.00 0.00 51 1012.8
20260831122014 91 219 4.0 7.0 0.00 0.00 0.00 50 1012.8
20260831121517 91 226 2.0 7.0 0.00 0.00 0.00 49 1012.8
20260831121018 91 196 5.0 7.0 0.00 0.00 0.00 52 1012.9
20260831120521 91 202 3.0 6.0 0.00 0.00 0.00 52 1012.9
20260831120015 91 215 3.0 5.0 0.00 0.00 0.00 50 1012.9
20260831115520 90 227 3.0 7.0 0.00 0.00 0.00 50 1012.9
20260831115022 90 206 4.0 7.0 0.00 0.00 0.00 49 1013.0
20260831114528 91 213 3.0 5.0 0.00 0.00 0.00 52 1013.0
20260831114029 90 165 3.0 7.0 0.00 0.00 0.00 51 1013.1
20260831113512 90 203 1.0 7.0 0.00 0.00 0.00 48 1013.1
20260831113043 90 130 2.0 5.0 0.00 0.00 0.00 48 1013.1
20260831112525 90 177 2.0 6.0 0.00 0.00 0.00 48 1013.1
20260831112044 90 195 4.0 6.0 0.00 0.00 0.00 50 1013.2
20260831111548 90 140 1.0 6.0 0.00 0.00 0.00 48 1013.1
20260831111049 90 192 2.0 6.0 0.00 0.00 0.00 48 1013.2
20260831110531 90 183 1.0 5.0 0.00 0.00 0.00 48 1013.1
20260831110024 90 183 1.0 3.0 0.00 0.00 0.00 47 1013.2
20260831105528 89 200 1.0 4.0 0.00 0.00 0.00 48 1013.2
20260831105029 89 217 2.0 6.0 0.00 0.00 0.00 49 1013.3
20260831104513 89 173 2.0 5.0 0.00 0.00 0.00 50 1013.3
20260831104015 89 200 1.0 4.0 0.00 0.00 0.00 49 1013.4
20260831103519 89 213 1.0 5.0 0.00 0.00 0.00 49 1013.4
20260831103012 89 218 2.0 5.0 0.00 0.00 0.00 49 1013.4
20260831102520 89 195 2.0 4.0 0.00 0.00 0.00 50 1013.5
20260831102022 88 175 1.0 7.0 0.00 0.00 0.00 51 1013.5
20260831101526 88 185 2.0 7.0 0.00 0.00 0.00 52 1013.5
20260831101026 88 148 1.0 5.0 0.00 0.00 0.00 53 1013.6
20260831100530 87 143 1.0 5.0 0.00 0.00 0.00 53 1013.6
20260831100023 87 140 2.0 4.0 0.00 0.00 0.00 56 1013.7
20260831095526 86 59 1.0 3.0 0.00 0.00 0.00 56 1013.7
20260831095025 86 57 1.0 3.0 0.00 0.00 0.00 56 1013.7
20260831094527 85 57 2.0 4.0 0.00 0.00 0.00 58 1013.8
20260831094028 85 57 2.0 4.0 0.00 0.00 0.00 58 1013.8
20260831093513 84 56 2.0 4.0 0.00 0.00 0.00 59 1013.8
20260831093025 84 57 2.0 5.0 0.00 0.00 0.00 59 1013.9
20260831092550 84 57 3.0 5.0 0.00 0.00 0.00 59 1013.9
20260831092030 83 54 3.0 5.0 0.00 0.00 0.00 60 1014.0
20260831091534 83 54 3.0 5.0 0.00 0.00 0.00 61 1014.0
20260831091018 83 51 3.0 5.0 0.00 0.00 0.00 61 1014.1
20260831090522 82 55 3.0 4.0 0.00 0.00 0.00 62 1014.1
20260831090015 82 57 2.0 5.0 0.00 0.00 0.00 62 1014.2
20260831085540 82 57 2.0 5.0 0.00 0.00 0.00 61 1014.2
20260831085018 81 57 2.0 5.0 0.00 0.00 0.00 63 1014.1
20260831084522 81 57 2.0 5.0 0.00 0.00 0.00 65 1014.1
20260831084023 81 57 3.0 6.0 0.00 0.00 0.00 64 1014.2
20260831083527 80 58 3.0 6.0 0.00 0.00 0.00 64 1014.2
20260831083021 80 55 2.0 4.0 0.00 0.00 0.00 64 1014.2
20260831082524 80 54 2.0 6.0 0.00 0.00 0.00 65 1014.2
20260831082024 80 54 4.0 6.0 0.00 0.00 0.00 65 1014.2
20260831081527 79 53 2.0 4.0 0.00 0.00 0.00 67 1014.2
20260831081027 79 53 3.0 4.0 0.00 0.00 0.00 67 1014.2
20260831080551 78 55 2.0 4.0 0.00 0.00 0.00 68 1014.2
20260831080023 78 54 2.0 6.0 0.00 0.00 0.00 69 1014.2
20260831075546 77 54 3.0 6.0 0.00 0.00 0.00 69 1014.2
20260831075026 77 55 3.0 5.0 0.00 0.00 0.00 69 1014.3
20260831074515 77 58 2.0 6.0 0.00 0.00 0.00 70 1014.3
20260831074015 76 60 4.0 6.0 0.00 0.00 0.00 71 1014.3
20260831073540 76 51 3.0 6.0 0.00 0.00 0.00 72 1014.3
20260831073012 75 50 3.0 5.0 0.00 0.00 0.00 73 1014.3
20260831072515 75 49 2.0 9.0 0.00 0.00 0.00 74 1014.3
20260831072018 75 50 4.0 9.0 0.00 0.00 0.00 73 1014.3
20260831071522 74 52 4.0 5.0 0.00 0.00 0.00 73 1014.3
20260831071042 74 51 3.0 6.0 0.00 0.00 0.00 75 1014.3
20260831070544 73 51 3.0 6.0 0.00 0.00 0.00 75 1014.3
20260831070036 73 49 2.0 4.0 0.00 0.00 0.00 77 1014.3
20260831065519 72 49 2.0 5.0 0.00 0.00 0.00 79 1014.3
20260831065018 71 49 2.0 4.0 0.00 0.00 0.00 79 1014.3
20260831064521 70 49 2.0 4.0 0.00 0.00 0.00 81 1014.3
20260831064021 70 49 3.0 5.0 0.00 0.00 0.00 82 1014.3
20260831063527 69 49 2.0 5.0 0.00 0.00 0.00 83 1014.3
20260831063041 68 49 3.0 5.0 0.00 0.00 0.00 84 1014.3
20260831062522 68 49 2.0 5.0 0.00 0.00 0.00 85 1014.3
20260831062042 68 49 3.0 4.0 0.00 0.00 0.00 85 1014.3
20260831061527 67 49 2.0 4.0 0.00 0.00 0.00 86 1014.3
20260831061047 67 49 2.0 4.0 0.00 0.00 0.00 86 1014.2
20260831060516 67 49 2.0 4.0 0.00 0.00 0.00 87 1014.2
20260831060044 66 49 1.0 4.0 0.00 0.00 0.00 88 1014.0
20260831055525 66 49 2.0 4.0 0.00 0.00 0.00 90 1014.0
20260831055029 65 49 1.0 4.0 0.00 0.00 0.00 91 1014.1
20260831054532 65 49 2.0 4.0 0.00 0.00 0.00 93 1014.1
20260831054012 65 49 3.0 4.0 0.00 0.00 0.00 93 1014.2
20260831053516 65 49 1.0 3.0 0.00 0.00 0.00 93 1014.1
20260831053027 64 49 0.0 3.0 0.00 0.00 0.00 94 1014.2
20260831052530 64 49 0.0 3.0 0.00 0.00 0.00 94 1014.2
20260831052031 64 49 2.0 3.0 0.00 0.00 0.00 93 1014.2
20260831051513 64 49 1.0 3.0 0.00 0.00 0.00 93 1014.2
20260831051013 64 49 0.0 1.0 0.00 0.00 0.00 93 1014.2
20260831050517 64 49 0.0 1.0 0.00 0.00 0.00 93 1014.3
20260831050031 64 49 0.0 1.0 0.00 0.00 0.00 93 1014.2
20260831045515 64 49 0.0 1.0 0.00 0.00 0.00 93 1014.1
20260831045014 64 49 0.0 1.0 0.00 0.00 0.00 93 1014.1
20260831044522 64 49 0.0 1.0 0.00 0.00 0.00 93 1014.1
20260831044023 63 49 0.0 1.0 0.00 0.00 0.00 93 1014.1
20260831043528 63 49 0.0 0.0 0.00 0.00 0.00 92 1014.1
20260831043020 63 49 0.0 0.0 0.00 0.00 0.00 92 1014.1
20260831042523 64 49 0.0 0.0 0.00 0.00 0.00 92 1014.1
20260831042023 64 49 0.0 1.0 0.00 0.00 0.00 92 1014.1
20260831041546 64 49 0.0 0.0 0.00 0.00 0.00 92 1014.1
20260831041025 64 49 0.0 0.0 0.00 0.00 0.00 92 1014.1
20260831040550 64 49 0.0 0.0 0.00 0.00 0.00 92 1014.1
20260831040022 64 49 0.0 0.0 0.00 0.00 0.00 92 1014.1
20260831035525 64 49 0.0 1.0 0.00 0.00 0.00 92 1014.1
20260831035026 64 49 0.0 1.0 0.00 0.00 0.00 92 1014.1
20260831034530 64 49 0.0 0.0 0.00 0.00 0.00 92 1014.1
20260831034030 64 49 0.0 0.0 0.00 0.00 0.00 92 1014.1
20260831033514 64 49 0.0 0.0 0.00 0.00 0.00 92 1014.1
20260831033025 64 49 0.0 0.0 0.00 0.00 0.00 91 1014.1
20260831032513 64 49 0.0 0.0 0.00 0.00 0.00 91 1014.1
20260831032053 64 49 0.0 0.0 0.00 0.00 0.00 91 1014.1
20260831031515 64 49 0.0 0.0 0.00 0.00 0.00 91 1014.1
20260831031034 64 49 0.0 0.0 0.00 0.00 0.00 91 1014.2
20260831030518 64 49 0.0 0.0 0.00 0.00 0.00 91 1014.2
20260831030030 64 49 0.0 0.0 0.00 0.00 0.00 91 1014.2
20260831025514 64 49 0.0 1.0 0.00 0.00 0.00 90 1014.2
20260831025015 64 49 0.0 1.0 0.00 0.00 0.00 90 1014.2
20260831024519 64 49 0.0 0.0 0.00 0.00 0.00 90 1014.2
20260831024040 64 49 0.0 0.0 0.00 0.00 0.00 90 1014.2
20260831023525 64 49 0.0 1.0 0.00 0.00 0.00 90 1014.2
20260831023017 64 49 0.0 1.0 0.00 0.00 0.00 90 1014.2
20260831022520 64 49 0.0 1.0 0.00 0.00 0.00 90 1014.2
20260831022021 64 49 0.0 0.0 0.00 0.00 0.00 90 1014.2
20260831021544 64 49 0.0 0.0 0.00 0.00 0.00 90 1014.2
20260831021025 64 49 0.0 0.0 0.00 0.00 0.00 90 1014.2
20260831020528 64 49 0.0 0.0 0.00 0.00 0.00 89 1014.2
20260831020018 65 49 0.0 0.0 0.00 0.00 0.00 89 1014.3
20260831015525 65 49 0.0 0.0 0.00 0.00 0.00 89 1014.2
20260831015024 65 49 0.0 1.0 0.00 0.00 0.00 89 1014.2
20260831014549 65 49 0.0 1.0 0.00 0.00 0.00 89 1014.2
20260831014030 65 49 0.0 1.0 0.00 0.00 0.00 89 1014.2
20260831013513 65 49 0.0 0.0 0.00 0.00 0.00 89 1014.3
20260831013025 65 49 0.0 0.0 0.00 0.00 0.00 89 1014.3
20260831012529 65 49 0.0 0.0 0.00 0.00 0.00 89 1014.3
20260831012028 65 49 0.0 1.0 0.00 0.00 0.00 89 1014.3
20260831011534 65 49 0.0 1.0 0.00 0.00 0.00 89 1014.3
20260831011014 65 49 0.0 1.0 0.00 0.00 0.00 89 1014.3
20260831010518 65 49 0.0 1.0 0.00 0.00 0.00 89 1014.3
20260831010031 65 49 0.0 1.0 0.00 0.00 0.00 89 1014.4
20260831005515 65 49 0.0 1.0 0.00 0.00 0.00 89 1014.4
20260831005016 65 49 0.0 0.0 0.00 0.00 0.00 89 1014.4
20260831004520 65 49 0.0 0.0 0.00 0.00 0.00 89 1014.4
20260831004018 65 49 0.0 0.0 0.00 0.00 0.00 89 1014.4
20260831003524 65 49 0.0 0.0 0.00 0.00 0.00 89 1014.4
20260831003015 65 49 0.0 0.0 0.00 0.00 0.00 89 1014.4
20260831002539 65 49 0.0 0.0 0.00 0.00 0.00 88 1014.4
20260831002019 65 49 0.0 0.0 0.00 0.00 0.00 88 1014.5
20260831001522 65 49 0.0 0.0 0.00 0.00 0.00 88 1014.5
20260831001023 66 49 0.0 0.0 0.00 0.00 0.00 88 1014.5
20260831000546 66 49 0.0 1.0 0.00 0.00 0.00 88 1014.6
20260831000037 66 49 0.0 1.0 0.00 0.00 0.00 88 1014.6
20260830235520 66 49 0.0 1.0 0.00 0.00 0.00 88 1014.5
20260830235019 66 49 0.0 1.0 0.00 0.00 0.00 88 1014.6
20260830234525 66 49 0.0 1.0 0.00 0.00 0.00 88 1014.6
20260830234026 66 49 0.0 1.0 0.00 0.00 0.00 88 1014.6
20260830233530 66 49 0.0 2.0 0.00 0.00 0.00 88 1014.5
20260830233022 66 49 0.0 2.0 0.00 0.00 0.00 88 1014.5
20260830232527 66 49 0.0 1.0 0.00 0.00 0.00 88 1014.5
20260830232048 66 49 0.0 0.0 0.00 0.00 0.00 88 1014.6
20260830231514 66 49 0.0 1.0 0.00 0.00 0.00 88 1014.6